www.pogodaiklimat.ru

Погода и климат >> Архив погоды >> ОАЭ >> Dubai


АРХИВ ПОГОДЫ в Dubai

Время (UTC), дата Ветер
(напр.,м/с)
 
Видим.   Явления Облачность Т
(С)
Тd
(С)
f
(%)
Тe
(С)
Тes
(С)
Комфортность P
(гПа)
Po
(гПа)
Тmin
(С)
Tmax
(С)
R
(мм)
R24
(мм)
S
(см)
09 19.09 ЮЗ 5 6000 м пыль ясно +40.1 +13.4 21 +40 +50 очень
жарко
1006.7 1006.2
12 19.09 СЗ 7 10 км ясно +38.1 +17.9 31 +42 +43 опасность
перегрева
1005.6 1005.1
18 19.09 СВ 2 10 км ясно +35.6 +14.1 28 +37 +37 душно 1006.6 1006.1 +40.6
00 20.09 нст 2 10 км ясно +32.6 +17.2 40 +36 +36 очень
душно
1004.7 1004.2
03 20.09 нст 1 10 км ясно +31.8 +14.3 35 +34 +34 душно 1006.0 1005.5
06 20.09 Ю 3 10 км ясно +36.6 +9.7 20 +35 +46 очень
жарко
1007.6 1007.1 +31.3
09 20.09 З 5 10 км ясно +39.5 +12.1 20 +39 +48 очень
жарко
1006.1 1005.6
12 20.09 СЗ 6 10 км ясно +38.2 +19.4 34 +37 +39 очень
жарко
1004.4 1003.9
15 20.09 СЗ 4 10 км ясно +33.4 +25.8 65 +49 +49 опасность
перегрева
1004.8 1004.3
18 20.09 СВ 3 10 км ясно +33.6 +25.8 64 +49 +49 опасность
перегрева
1006.0 1005.5 +40.6
21 20.09 нст 2 10 км ясно +33.5 +23.2 55 +44 +44 опасность
перегрева
1005.0 1004.5
06 21.09 В 3 10 км ясно +37.5 +17.4 31 +41 +50 опасность
перегрева
1008.2 1007.7 +30.9
09 21.09 СЗ 6 10 км ясно +39.1 +22.2 38 +47 +55 опасность
перегрева
1005.9 1005.4
12 21.09 С 8 10 км ясно +36.2 +22.7 46 +46 +47 опасность
перегрева
1004.9 1004.4
15 21.09 СЗ 5 10 км ясно +34.6 +22.3 49 +44 +44 опасность
перегрева
1005.7 1005.2
21 21.09 СВ 2 10 км ясно +34.4 +21.0 46 +42 +42 опасность
перегрева
1006.5 1006.0
00 22.09 С 2 10 км ясно +34.2 +21.2 47 +42 +42 опасность
перегрева
1005.9 1005.4
03 22.09 С 2 10 км ясно +34.2 +21.2 47 +42 +42 опасность
перегрева
1005.9 1005.4
09 22.09 СЗ 5 8000 м пыль ясно +39.0 +17.6 29 +42 +51 опасность
перегрева
1007.0 1006.5
15 22.09 СВ 4 10 км ясно +35.9 +21.7 44 +44 +44 опасность
перегрева
1006.4 1005.9
18 22.09 С 2 10 км ясно +34.1 +26.8 66 +52 +52 опасность
перегрева
1007.8 1007.3 +40.8
21 22.09 С 2 10 км ясно +33.0 +27.4 73 +52 +52 опасность
перегрева
1007.2 1006.7
00 23.09 СВ 3 10 км ясно +33.1 +24.2 60 +45 +45 опасность
перегрева
1007.2 1006.7
03 23.09 В 2 8000 м пыль ясно +32.0 +25.7 69 +47 +47 опасность
перегрева
1008.4 1007.9
06 23.09 В 3 10 км ясно +38.2 +13.9 24 +39 +49 очень
душно
1009.9 1009.3 +32.0
18 23.09 СВ 3 10 км ясно +36.6 +16.1 30 +39 +39 очень
душно
1008.3 1007.8 +43.2
21 23.09 СВ 3 10 км ясно +35.0 +15.7 32 +37 +37 очень
душно
1007.7 1007.2
03 24.09 ЮЗ 3 10 км ясно +31.9 +9.8 26 +31 +32 жарко 1008.3 1007.8
09 24.09 З 9 8000 м пыль ясно +38.1 +15.1 26 +39 +41 очень
душно
1008.6 1008.1
12 24.09 З 7 10 км ясно +36.6 +21.6 42 +44 +46 опасность
перегрева
1007.1 1006.6
15 24.09 СЗ 3 10 км ясно +34.4 +23.4 53 +45 +45 опасность
перегрева
1007.0 1006.5
18 24.09 СЗ 3 10 км ясно +33.0 +25.7 66 +48 +48 опасность
перегрева
1008.2 1007.7 +40.0
21 24.09 ЮВ 4 10 км ясно +32.6 +22.9 57 +43 +43 опасность
перегрева
1006.8 1006.3
00 25.09 ЮЗ 3 10 км ясно +31.6 +17.8 44 +36 +36 очень
душно
1006.3 1005.8
03 25.09 Ю 4 8000 м пыль ясно +30.2 +17.5 47 +34 +35 очень
душно
1007.8 1007.3
06 25.09 ЮЗ 4 8000 м пыль ясно +34.5 +14.3 30 +36 +43 душно 1009.2 1008.7 +30.1
15 25.09 З 6 6000 м мгла 3/3 600 м
[Sc]
+33.8 +28.6 74 +56 +56 опасность
перегрева
1005.9 1005.4
18 25.09 З 3 7000 м мгла 3/3 600 м
[Sc]
+33.3 +27.2 70 +52 +52 опасность
перегрева
1007.1 1006.6 +37.6
00 26.09 Ю 3 7000 м мгла ясно +31.2 +24.7 68 +44 +44 опасность
перегрева
1005.8 1005.3
03 26.09 Ю 2 6000 м мгла 3/3 1050 м
[Sc]
+30.6 +23.4 65 +41 +41 опасность
перегрева
1007.0 1006.5

 

Местоположение метеостанции Dubai (ОАЭ): широта 25.25 долгота 55.33 высота над уровнем моря 5 м.

В архиве по умолчанию представлена погода в Dubai за последнюю неделю. Архивные данные за месяц целиком и за предыдущие месяцы, начиная с января 2011 года, Вы можете получить, выбрав интересующий диапазон дат из раскрывающегося списка и нажав кнопку "Ввод!".


*Определитесь, кто Вы:
робот инопланетянин человек

Внимание! Время в таблицах - всемирное. Для получения местного времени необходимо прибавить поправку, которая в Dubai равна 4 ч.

Смотрите также архив погоды в соседних городах и на ближайших метеорологических станциях:

Погода в Sharjah (ОАЭ) (21 км)
Погода в Dubai Al Maktoum Int Airport (ОАЭ) (43 км)
Погода в Ras Al Khaimah Int Airport (ОАЭ) (73 км)
Погода в Abu Musa Island (Иран) (82 км)
Погода в Diba (Оман) (101 км)
Погода в Fujairah (ОАЭ) (102 км)
Погода в Sirri Island (Иран) (107 км)
Погода в Al Ain Int Airport (ОАЭ) (112 км)
Погода в Abu Dhabi (ОАЭ) (114 км)
Погода в Buraimi (Оман) (122 км)

Пояснения к столбцам:

Ветер - указаны скорость ветра в м/с - средняя за 10 мин, порывы в срок и между сроками (в фигурных скобках) и направление, откуда дует ветер: С - северный, СВ - северо-восточный, В - восточный, ЮВ - юго-восточный, Ю - южный, ЮЗ - юго-западный, З - западный, СЗ - северо-западный.
Видимость - горизонтальная дальность видимости в метрах или километрах. При видимости от 1 до 10 км при отсутствии осадков обычно наблюдается дымка, при ухудшении видимости до 1 км и менее - туман. В сухую погоду видимость может ухудшаться дымом, пылью или мглою.
Явления - указаны атмосферные явления, наблюдавшиеся в срок или в последний час перед сроком; фигурными скобками обозначены явления, наблюдавшиеся между сроками (за 1-3 часа до срока); квадратными скобками обозначены град или гололедные отложения с указанием их диаметра в мм.
Облачность - указаны через наклонную черту общая и нижняя облачность в баллах и высота нижней границы облаков в метрах; квадратными скобками обозначены формы облаков: Ci - перистые, Cs - перисто-слоистые, Cc - перисто-кучевые, Ac - высококучевые, As - высокослоистые, Sc - слоисто-кучевые, Ns - слоисто-дождевые, Cu - кучевые, Cb - кучево-дождевые. Подробнее классификацию облаков см. в Атласе облаков (PDF).
T - Температура воздуха - температура, измеренная на высоте 2 м над землей.
Td - Температура точки росы - температура, при понижении до которой содержащийся в воздухе водяной пар достигнет насыщения.
f - Относительная влажность воздуха - влажноcть воздуха, измеренная на высоте 2 м над землей.
Te - Эффективная температура - температура, которую ощущает одетый по сезону человек в тени. Характеристика душности погоды. При расчете учитывается влияние влажности воздуха и скорости ветра на теплоощущения человека.
Tes - Эффективная температура на солнце - температура, которую ощущает человек, с поправкой на солнечный нагрев. Характеристика знойности погоды. Зависит от высоты солнца над горизонтом, облачности и скорости ветра. Ночью, в пасмурную погоду, а также при ветре 12 м/с и более поправка равна нулю.
P - Атмосферное давление - приведенное к уровню моря атмосферное давление.
Po - Атмосферное давление - измеренное на уровне метеостанции атмосферное давление.
Tmin - Минимальная температура - минимум температуры воздуха на высоте 2 м над землей.
Tmax - Максимальная температура - максимум температуры воздуха на высоте 2 м над землей.
R - Количество осадков - Количество выпавших осадков за период времени, мм. При наведении курсора мыши на число - период времени, за который выпало указанное количество осадков.
R24 - Количество осадков - Количество выпавших осадков за 24 часа, мм.
S - Снежный покров - Высота снежного покрова, см. При наведении курсора мыши на число - состояние снежного покрова и степень покрытия местности в баллах.